�������l�o���
Date,Time,MP-1(��Sv/h),MP-2(��Sv/h),MP-3(��Sv/h),MP-4(��Sv/h),MP-5(��Sv/h),MP-6(��Sv/h),MP-7(��Sv/h),MP-8(��Sv/h),����,����(m/s),���J
2019/02/11,00:00,0.747,1.093,0.768,1.411,1.008,0.432,0.775,0.739,-,CALM,��
2019/02/11,00:10,0.747,1.092,0.769,1.409,1.007,0.433,0.774,0.736,�k,0.8,��
2019/02/11,00:20,0.747,1.094,0.769,1.412,1.008,0.433,0.775,0.737,�k�k��,1.5,��
2019/02/11,00:30,0.748,1.091,0.771,1.412,1.007,0.431,0.775,0.739,�k,2.8,��
2019/02/11,00:40,0.748,1.093,0.771,1.414,1.007,0.432,0.774,0.738,�k�k��,3.3,��
2019/02/11,00:50,0.750,1.091,0.770,1.412,1.008,0.431,0.774,0.738,�k�k��,4.4,��
2019/02/11,01:00,0.748,1.093,0.768,1.412,1.008,0.434,0.773,0.737,�k��,2.5,��
2019/02/11,01:10,0.749,1.092,0.769,1.411,1.004,0.432,0.774,0.737,�k��,2.3,��
2019/02/11,01:20,0.749,1.092,0.770,1.413,1.007,0.433,0.773,0.739,�k��,3.5,��
2019/02/11,01:30,0.748,1.092,0.768,1.412,1.008,0.433,0.775,0.738,�k�k��,4.0,��
2019/02/11,01:40,0.750,1.091,0.769,1.412,1.008,0.433,0.775,0.737,�k�k��,4.0,��
2019/02/11,01:50,0.748,1.090,0.772,1.412,1.006,0.433,0.775,0.737,�k�k��,5.3,��
2019/02/11,02:00,0.747,1.091,0.771,1.412,1.007,0.432,0.775,0.737,�k��,6.3,��
2019/02/11,02:10,0.750,1.093,0.771,1.411,1.006,0.433,0.775,0.737,�k��,6.2,��
2019/02/11,02:20,0.749,1.091,0.772,1.412,1.007,0.432,0.775,0.739,�k��,4.7,��
2019/02/11,02:30,0.751,1.091,0.771,1.410,1.009,0.432,0.776,0.738,�k�k��,2.2,��
2019/02/11,02:40,0.745,1.091,0.769,1.412,1.007,0.435,0.775,0.737,�k�k��,1.7,��
2019/02/11,02:50,0.748,1.090,0.771,1.413,1.008,0.433,0.775,0.737,�k�k��,4.0,��
2019/02/11,03:00,0.746,1.091,0.771,1.413,1.008,0.433,0.775,0.738,�k�k��,3.5,��
2019/02/11,03:10,0.746,1.092,0.771,1.412,1.008,0.432,0.774,0.738,�k�k��,2.6,��
2019/02/11,03:20,0.747,1.092,0.770,1.409,1.006,0.432,0.776,0.738,�k,1.9,��
2019/02/11,03:30,0.750,1.093,0.769,1.410,1.008,0.433,0.775,0.737,�k,1.8,��
2019/02/11,03:40,0.748,1.091,0.770,1.412,1.006,0.433,0.777,0.738,�k�k��,2.0,��
2019/02/11,03:50,0.748,1.092,0.770,1.411,1.006,0.430,0.775,0.737,-,CALM,��
2019/02/11,04:00,0.748,1.092,0.768,1.412,1.006,0.430,0.775,0.738,�쐼,0.6,��
2019/02/11,04:10,0.747,1.089,0.770,1.413,1.008,0.433,0.776,0.737,��,0.9,��
2019/02/11,04:20,0.748,1.091,0.769,1.414,1.008,0.432,0.775,0.738,��,1.5,��
2019/02/11,04:30,0.748,1.092,0.770,1.414,1.007,0.432,0.774,0.738,��,1.2,��
2019/02/11,04:40,0.747,1.092,0.770,1.413,1.005,0.432,0.775,0.737,��,0.9,��
2019/02/11,04:50,0.747,1.092,0.769,1.411,1.007,0.432,0.776,0.738,-,CALM,��
2019/02/11,05:00,0.747,1.092,0.771,1.415,1.008,0.433,0.775,0.737,��,0.6,��
2019/02/11,05:10,0.746,1.092,0.770,1.411,1.006,0.432,0.776,0.739,�쐼,1.4,��
2019/02/11,05:20,0.749,1.087,0.770,1.413,1.008,0.432,0.776,0.740,���쐼,1.5,��
2019/02/11,05:30,0.747,1.091,0.771,1.410,1.006,0.433,0.775,0.740,���쐼,1.7,��
2019/02/11,05:40,0.747,1.091,0.771,1.413,1.006,0.431,0.774,0.738,���쐼,2.0,��
2019/02/11,05:50,0.746,1.091,0.769,1.412,1.010,0.431,0.775,0.736,���k��,1.8,��
2019/02/11,06:00,0.749,1.091,0.770,1.413,1.007,0.431,0.775,0.739,���k��,2.9,��
2019/02/11,06:10,0.747,1.092,0.771,1.412,1.008,0.433,0.775,0.739,���k��,2.3,��
2019/02/11,06:20,0.749,1.091,0.770,1.411,1.008,0.433,0.774,0.737,���k��,3.4,��
2019/02/11,06:30,0.748,1.092,0.769,1.412,1.006,0.432,0.776,0.739,���k��,3.2,��
2019/02/11,06:40,0.748,1.090,0.768,1.412,1.008,0.431,0.776,0.739,���k��,2.6,��
2019/02/11,06:50,0.749,1.093,0.769,1.413,1.008,0.432,0.776,0.738,���k��,2.2,��
2019/02/11,07:00,0.750,1.091,0.768,1.414,1.007,0.430,0.774,0.738,���k��,2.2,��
2019/02/11,07:10,0.748,1.090,0.772,1.413,1.007,0.433,0.775,0.739,���k��,3.1,��
2019/02/11,07:20,0.748,1.090,0.769,1.416,1.006,0.432,0.777,0.737,���k��,3.3,��
2019/02/11,07:30,0.749,1.092,0.771,1.414,1.007,0.432,0.775,0.738,���k��,2.5,��
2019/02/11,07:40,0.749,1.090,0.769,1.414,1.007,0.432,0.776,0.737,���k��,3.4,��
2019/02/11,07:50,0.748,1.092,0.771,1.413,1.007,0.431,0.775,0.738,���k��,2.8,��
2019/02/11,08:00,0.750,1.092,0.768,1.414,1.006,0.432,0.774,0.737,���k��,2.8,��
2019/02/11,08:10,0.748,1.091,0.771,1.413,1.006,0.432,0.775,0.737,�k��,2.3,��
2019/02/11,08:20,0.749,1.090,0.769,1.414,1.007,0.432,0.774,0.739,�k��,2.9,��
2019/02/11,08:30,0.750,1.089,0.768,1.412,1.009,0.432,0.776,0.739,���k��,2.0,��
2019/02/11,08:40,0.749,1.090,0.771,1.413,1.002,0.434,0.776,0.738,���k��,1.8,��
2019/02/11,08:50,0.750,1.089,0.770,1.413,1.009,0.432,0.776,0.739,��,3.0,��
2019/02/11,09:00,0.749,1.091,0.769,1.413,1.007,0.432,0.776,0.739,��,2.6,��
2019/02/11,09:10,0.750,1.089,0.769,1.412,1.009,0.432,0.779,0.737,��,3.1,��
2019/02/11,09:20,0.752,1.088,0.770,1.412,1.009,0.431,0.777,0.739,��,3.0,��
2019/02/11,09:30,0.748,1.091,0.772,1.414,1.008,0.434,0.776,0.740,��,3.0,��
2019/02/11,09:40,0.751,1.092,0.771,1.413,1.011,0.433,0.775,0.739,���쐼,2.5,��
2019/02/11,09:50,0.751,1.091,0.769,1.413,1.011,0.433,0.776,0.739,��쐼,2.0,��
2019/02/11,10:00,0.752,1.089,0.771,1.414,1.009,0.433,0.777,0.738,��,1.4,��
2019/02/11,10:10,0.752,1.092,0.771,1.416,1.010,0.434,0.775,0.738,��,1.9,��
2019/02/11,10:20,0.754,1.091,0.772,1.416,1.012,0.432,0.777,0.739,��쓌,2.3,��
2019/02/11,10:30,0.755,1.093,0.773,1.419,1.012,0.434,0.775,0.739,��쓌,1.7,��
2019/02/11,10:40,0.752,1.094,0.772,1.416,1.014,0.434,0.777,0.740,��쓌,1.8,��
2019/02/11,10:50,0.755,1.096,0.774,1.416,1.012,0.435,0.775,0.739,��쓌,1.7,��
2019/02/11,11:00,0.754,1.098,0.774,1.417,1.015,0.433,0.777,0.741,��쓌,2.6,��
2019/02/11,11:10,0.755,1.099,0.773,1.417,1.017,0.434,0.775,0.738,��쓌,2.9,��
2019/02/11,11:20,0.758,1.099,0.773,1.416,1.006,0.433,0.776,0.740,��쓌,2.9,��
2019/02/11,11:30,0.758,1.101,0.774,1.417,1.002,0.434,0.776,0.740,��쓌,4.0,��
2019/02/11,11:40,0.756,1.103,0.774,1.417,1.003,0.435,0.775,0.739,�쓌,3.1,��
2019/02/11,11:50,0.758,1.105,0.775,1.418,1.003,0.435,0.776,0.741,�쓌,3.8,��
2019/02/11,12:00,0.759,1.106,0.775,1.419,1.005,0.435,0.777,0.741,�쓌,3.4,��
2019/02/11,12:10,0.761,1.108,0.776,1.418,1.004,0.435,0.778,0.740,�쓌,3.9,��
2019/02/11,12:20,0.760,1.109,0.779,1.419,1.005,0.436,0.778,0.741,��쓌,3.5,��
2019/02/11,12:30,0.760,1.108,0.776,1.419,1.009,0.435,0.778,0.741,��쓌,3.7,��
2019/02/11,12:40,0.762,1.108,0.779,1.421,1.010,0.436,0.777,0.739,��쓌,4.5,��
2019/02/11,12:50,0.761,1.109,0.778,1.424,1.014,0.437,0.780,0.742,��쓌,4.9,��
2019/02/11,13:00,0.761,1.109,0.778,1.423,1.029,0.438,0.778,0.741,��쓌,5.1,��
2019/02/11,13:10,0.763,1.111,0.777,1.421,1.031,0.438,0.778,0.743,��쓌,5.2,��
2019/02/11,13:20,0.762,1.110,0.780,1.425,1.030,0.437,0.779,0.742,��쓌,5.1,��
2019/02/11,13:30,0.764,1.113,0.781,1.426,1.034,0.438,0.780,0.743,��쓌,4.8,��
2019/02/11,13:40,0.761,1.113,0.780,1.426,1.034,0.440,0.780,0.742,��,4.3,��
2019/02/11,13:50,0.761,1.115,0.779,1.427,1.033,0.438,0.779,0.741,��,5.1,��
2019/02/11,14:00,0.763,1.113,0.781,1.428,1.033,0.438,0.779,0.742,��,4.7,��
2019/02/11,14:10,0.764,1.116,0.780,1.429,1.035,0.438,0.780,0.744,��,5.4,��
2019/02/11,14:20,0.763,1.117,0.780,1.430,1.034,0.439,0.780,0.742,��,5.4,��
2019/02/11,14:30,0.764,1.116,0.781,1.430,1.037,0.439,0.781,0.742,��쓌,4.0,��
2019/02/11,14:40,0.764,1.119,0.784,1.430,1.037,0.440,0.781,0.741,��쓌,4.6,��
2019/02/11,14:50,0.764,1.119,0.781,1.433,1.038,0.440,0.782,0.742,��쓌,4.2,��
2019/02/11,15:00,0.766,1.119,0.782,1.438,1.037,0.439,0.782,0.744,��쓌,4.9,��
2019/02/11,15:10,0.764,1.122,0.781,1.435,1.039,0.440,0.781,0.741,��쓌,4.1,��
2019/02/11,15:20,0.765,1.121,0.781,1.436,1.038,0.440,0.782,0.743,��쓌,5.2,��
2019/02/11,15:30,0.764,1.120,0.781,1.435,1.039,0.440,0.782,0.743,��쓌,5.8,��
2019/02/11,15:40,0.764,1.121,0.781,1.438,1.038,0.440,0.781,0.743,��쓌,5.9,��
2019/02/11,15:50,0.765,1.120,0.781,1.439,1.038,0.440,0.782,0.742,��쓌,5.4,��
2019/02/11,16:00,0.764,1.123,0.783,1.438,1.040,0.439,0.783,0.743,��쓌,6.7,��
2019/02/11,16:10,0.764,1.123,0.784,1.440,1.039,0.439,0.782,0.743,��쓌,6.1,��
2019/02/11,16:20,0.763,1.123,0.783,1.438,1.040,0.441,0.783,0.742,��,4.6,��
2019/02/11,16:30,0.764,1.124,0.784,1.438,1.038,0.439,0.783,0.742,��,4.6,��
2019/02/11,16:40,0.766,1.125,0.783,1.440,1.040,0.440,0.784,0.743,��,5.5,��
2019/02/11,16:50,0.764,1.126,0.781,1.439,1.042,0.439,0.781,0.742,��,5.6,��
2019/02/11,17:00,0.768,1.126,0.783,1.441,1.039,0.441,0.783,0.744,��,5.4,��
2019/02/11,17:10,0.764,1.124,0.783,1.439,1.040,0.440,0.783,0.744,��쐼,4.5,��
2019/02/11,17:20,0.764,1.126,0.782,1.441,1.039,0.440,0.783,0.744,��쐼,4.4,��
2019/02/11,17:30,0.763,1.124,0.783,1.441,1.040,0.441,0.785,0.743,��쐼,4.7,��
2019/02/11,17:40,0.766,1.125,0.783,1.442,1.040,0.441,0.784,0.744,��쐼,4.6,�L
2019/02/11,17:50,0.765,1.129,0.782,1.438,1.039,0.439,0.783,0.743,��쐼,5.2,��
2019/02/11,18:00,0.764,1.123,0.784,1.441,1.042,0.441,0.784,0.744,��쐼,4.7,��
2019/02/11,18:10,0.763,1.127,0.783,1.439,1.041,0.440,0.784,0.743,��쐼,4.0,�L
2019/02/11,18:20,0.765,1.127,0.782,1.442,1.040,0.440,0.782,0.744,�쐼,4.1,��
2019/02/11,18:30,0.767,1.125,0.782,1.445,1.041,0.441,0.783,0.743,�쐼,3.4,��
2019/02/11,18:40,0.764,1.126,0.783,1.444,1.040,0.440,0.785,0.743,��쐼,4.1,�L
2019/02/11,18:50,0.764,1.126,0.786,1.443,1.041,0.440,0.784,0.744,��쐼,3.7,��
2019/02/11,19:00,0.765,1.126,0.783,1.443,1.040,0.441,0.783,0.742,��쐼,3.5,��
2019/02/11,19:10,0.765,1.122,0.783,1.444,1.041,0.441,0.783,0.744,��쐼,2.6,��
2019/02/11,19:20,0.764,1.122,0.785,1.442,1.042,0.439,0.784,0.744,��쐼,3.3,��
2019/02/11,19:30,0.768,1.123,0.786,1.442,1.039,0.440,0.786,0.741,��쐼,3.2,�L
2019/02/11,19:40,0.766,1.124,0.786,1.441,1.041,0.440,0.786,0.745,��쐼,4.0,�L
2019/02/11,19:50,0.764,1.124,0.785,1.443,1.040,0.441,0.785,0.743,��,3.4,�L
2019/02/11,20:00,0.763,1.125,0.783,1.443,1.040,0.441,0.784,0.744,��,4.6,�L
2019/02/11,20:10,0.765,1.123,0.782,1.445,1.040,0.440,0.785,0.744,��,5.4,�L
2019/02/11,20:20,0.765,1.125,0.783,1.444,1.041,0.439,0.783,0.741,��,3.9,�L
2019/02/11,20:30,0.766,1.125,0.784,1.441,1.041,0.440,0.785,0.743,��,4.5,��
2019/02/11,20:40,0.765,1.124,0.784,1.443,1.041,0.440,0.783,0.744,��,5.6,��
2019/02/11,20:50,0.765,1.125,0.785,1.443,1.042,0.439,0.784,0.744,��,4.7,��
2019/02/11,21:00,0.766,1.124,0.786,1.441,1.040,0.440,0.784,0.742,��,4.8,�L
2019/02/11,21:10,0.767,1.124,0.785,1.445,1.040,0.439,0.785,0.744,��,4.8,��
2019/02/11,21:20,0.766,1.124,0.786,1.442,1.040,0.439,0.785,0.743,��,4.8,��
2019/02/11,21:30,0.764,1.125,0.783,1.445,1.038,0.440,0.785,0.743,��,4.7,��
2019/02/11,21:40,0.765,1.123,0.784,1.441,1.041,0.440,0.785,0.742,��,5.2,��
2019/02/11,21:50,0.765,1.124,0.785,1.444,1.043,0.439,0.785,0.744,��,4.7,��
2019/02/11,22:00,0.766,1.125,0.784,1.444,1.040,0.440,0.784,0.743,��,4.8,��
2019/02/11,22:10,0.766,1.124,0.784,1.445,1.042,0.441,0.785,0.744,��,3.9,��
2019/02/11,22:20,0.766,1.128,0.785,1.445,1.041,0.439,0.785,0.743,�쐼,2.2,��
2019/02/11,22:30,0.766,1.127,0.785,1.443,1.041,0.439,0.784,0.743,�쐼,3.4,�L
2019/02/11,22:40,0.765,1.125,0.785,1.445,1.039,0.441,0.786,0.743,��쐼,5.9,��
2019/02/11,22:50,0.766,1.126,0.785,1.441,1.040,0.441,0.786,0.741,��,7.7,��
2019/02/11,23:00,0.766,1.125,0.785,1.444,1.041,0.440,0.784,0.744,��,7.6,��
2019/02/11,23:10,0.766,1.125,0.784,1.441,1.039,0.440,0.786,0.743,��,7.3,�L
2019/02/11,23:20,0.766,1.124,0.784,1.444,1.040,0.440,0.785,0.744,��,7.2,��
2019/02/11,23:30,0.766,1.125,0.785,1.440,1.042,0.439,0.785,0.744,��,5.0,��
2019/02/11,23:40,0.767,1.126,0.785,1.441,1.042,0.440,0.784,0.744,��,5.9,��
2019/02/11,23:50,0.765,1.126,0.784,1.444,1.042,0.441,0.786,0.744,��,5.9,��
